This is the latest recevied weather packets stored in our database for station/object HOTSPR-3. If no packets are shown the sender has not sent any weather packets the latest 1 day(s).
| Time | Temp. | Humidity | Pressure | Rain* | Wind** | Luminosity | Snow |
|---|---|---|---|---|---|---|---|
| 1778090739 | 10° C | 100% | 1011.9 hPa | 149.35 mm | - | - | - |
| 1778089838 | 10° C | 100% | 1013.6 hPa | 136.91 mm | - | - | - |
| 1778088337 | 10.56° C | 100% | 1012.4 hPa | 113.54 mm | - | - | - |
| 1778084735 | 10.56° C | 100% | 1012.3 hPa | 110.49 mm | - | - | - |
| 1778084435 | 11.11° C | 100% | 1012.4 hPa | 110.49 mm | - | - | - |
| 1778082634 | 11.11° C | 100% | 1011.6 hPa | 110.49 mm | - | - | - |
| 1778080833 | 10.56° C | 100% | 1011.8 hPa | 110.49 mm | - | - | - |
| 1778079632 | 10.56° C | 100% | 1011.4 hPa | 110.49 mm | - | - | - |
| 1778079332 | 10.56° C | 100% | 1011.7 hPa | 110.49 mm | - | - | - |
| 1778077531 | 10.56° C | 100% | 1011.8 hPa | 110.49 mm | - | - | - |
| 1778076630 | 10.56° C | 100% | 1011.5 hPa | 110.49 mm | - | - | - |
| 1778076030 | 10.56° C | 100% | 1011.2 hPa | 110.49 mm | - | - | - |
| 1778074529 | 10.56° C | 100% | 1011.2 hPa | 110.49 mm | - | - | - |
| 1778071527 | 11.11° C | 100% | 1010.8 hPa | 110.49 mm | - | - | - |
| 1778066124 | 11.67° C | 100% | 1008.3 hPa | 110.24 mm | - | - | - |
| 1778063122 | 12.78° C | 100% | 1008.1 hPa | 110.24 mm | - | - | - |
| 1778061321 | 13.33° C | 100% | 1007.5 hPa | 110.24 mm | - | - | - |
| 1778060420 | 13.33° C | 100% | 1007.3 hPa | 110.24 mm | - | - | - |
| 1778060120 | 13.89° C | 100% | 1007.3 hPa | 110.24 mm | - | - | - |
| 1778059820 | 13.89° C | 100% | 1007.2 hPa | 110.24 mm | - | - | - |
| 1778058619 | 14.44° C | 100% | 1006.6 hPa | 110.24 mm | - | - | - |
| 1778058019 | 15° C | 100% | 1007 hPa | 110.24 mm | - | - | - |
| 1778056818 | 15° C | 100% | 1006.4 hPa | 110.24 mm | - | - | - |
| 1778056518 | 15° C | 100% | 1006.2 hPa | 109.98 mm | - | - | - |
| 1778055317 | 15.56° C | 100% | 1006.3 hPa | 107.95 mm | - | - | - |
* Rain since midnight (hover to see other rain measurements)
** Current wind speed in m/s (hover to see current wind gust speed)